Location: Unspecified
(0.0000°N, 0.0000°E)
Time: 14:12:40
(UTC+00:00)

Tiros 1 - All Passes

Search period start: 28 January 2015 00:00
Search period end: 07 February 2015 00:00
Orbit: 633 x 666 km, 48.4° (Epoch: 27 January)

Date Brightness Start Highest point End Pass type
(mag) Time Alt. Az. Time Alt. Az. Time Alt. Az.
28 Jan - 05:58:45 10° S 06:02:51 29° SE 06:06:58 10° ENE daylight
28 Jan - 07:41:18 10° WSW 07:45:01 22° NW 07:48:34 10° N daylight
28 Jan - 18:11:33 10° NNW 18:16:04 52° NE 18:20:41 10° SE daylight
28 Jan - 19:56:19 10° WSW 19:58:22 12° SW 20:00:09 10° SSW visible
29 Jan - 06:24:52 10° SW 06:29:39 82° NW 06:34:21 10° NE daylight
29 Jan - 16:58:12 10° NNE 17:00:37 14° NE 17:03:18 10° E daylight
29 Jan - 18:38:23 10° WNW 18:42:50 43° SW 18:47:19 10° SSE visible
30 Jan - 05:10:17 10° S 05:14:16 27° SE 05:18:17 10° ENE visible
30 Jan - 06:52:34 10° WSW 06:56:27 24° NW 07:00:10 10° N daylight
30 Jan - 17:23:03 10° NNW 17:27:30 47° NE 17:32:03 10° SE daylight
30 Jan - 19:07:23 10° WSW 19:09:46 13° SW 19:11:56 10° SSW visible
31 Jan - 05:36:17 10° SW 05:41:05 89° NW 05:45:48 10° NE visible
31 Jan - 16:09:58 10° NNE 16:12:03 13° NE 16:14:22 10° ENE daylight
31 Jan - 17:49:47 10° NW 17:54:16 47° SW 17:58:48 10° SSE daylight
01 Feb - 04:21:50 10° S 04:25:42 25° SE 04:29:36 10° ENE visible
01 Feb - 06:03:51 10° WSW 06:07:52 26° NW 06:11:46 10° N daylight
01 Feb - 16:34:33 10° NNW 16:38:57 43° NE 16:43:25 10° ESE daylight
01 Feb - 18:18:31 10° W 18:21:11 15° SW 18:23:40 10° SSW daylight
02 Feb - 04:47:42 10° SW 04:52:31 83° SE 04:57:15 10° NE visible
02 Feb - 15:21:51 10° NNE 15:23:28 12° NE 15:25:22 10° ENE daylight
02 Feb - 17:01:11 10° NW 17:05:42 52° SW 17:10:17 10° SSE daylight
03 Feb - 03:33:23 10° S 03:37:06 23° SE 03:40:54 10° ENE visible
03 Feb - 05:15:08 10° WSW 05:19:17 28° NW 05:23:20 10° N visible
03 Feb - 15:46:05 10° NNW 15:50:23 39° NE 15:54:46 10° ESE daylight
03 Feb - 17:29:41 10° W 17:32:36 16° SW 17:35:21 10° SSW daylight
04 Feb - 03:59:08 10° SW 04:03:56 76° SE 04:08:41 10° NE visible
04 Feb - 14:33:54 10° NE 14:34:52 11° NE 14:36:09 10° ENE daylight
04 Feb - 16:12:35 10° NW 16:17:08 57° SW 16:21:45 10° SSE daylight
05 Feb - 02:44:58 10° S 02:48:30 21° SE 02:52:09 10° E night (unlit)
05 Feb - 04:26:26 10° WSW 04:30:42 31° NW 04:34:53 10° NNE visible
05 Feb - 14:57:36 10° NNW 15:01:49 36° NE 15:06:07 10° ESE daylight
05 Feb - 16:40:53 10° W 16:44:01 17° SW 16:47:00 10° S daylight
06 Feb - 03:10:34 10° SSW 03:15:21 69° SE 03:20:05 10° NE night (unlit)
06 Feb - 15:24:00 10° NW 15:28:34 63° SW 15:33:11 10° SSE daylight
